NNS 30080

operational
NORAD ID: 2119 Int'l Des: 1966-024 Owner: BUWEPS Country: US
LEOPOLAR

关于 NNS 30080

正在加载描述...

实时位置

正在加载3D地球...

即将过境

高度历史

Altitude vs Time

uPlot chart will show altitude changes over time

两行轨道根数

1 2119U 66024A 25278.49239532 .00000315 00000-0 29106-3 0 9992
2 2119 89.6049 99.0530 0148425 94.9599 266.8528 13.75308296980172
Epoch: Oct 5, 2025 • Age: 6 hours

当前状态

高度 1037.0 km
速度 7.31 km/s
星下点 -29.67°S, 6.23°W
类型 other

大型星座

Loading constellations...